[[{"header":{"parameterUnit":"m.s-1","parameterCategory":1,"la1":30.2991,"la2":30.254,"lo1":-89.0895,"lo2":-89.0444,"dy":0.0017,"dx":0.0017,"nx":28,"ny":28,"refTime":"2025-06-04T21:00:00:Z","depth":0,"parameterNumber":2,"parameterNumberName":"U-component_of_WINDS"},"data":[0,0,0,0,0,0,0,0,0,0,0,0,0,0,0,0,0,0,0,0,0,0,0,0,0,0,0,0,0,0,0,0,0,0,0,0,0,0,0,0,0,0,0,0,0,0,0,0,0,0,0,0,0,0,0,0,0,0,0.4541,0.4542,0,0.4578,0.4578,0.4579,0.4572,0.4571,0.4571,0.457,0.4607,0.4609,0.461,0,0,0,0,0,0,0,0,0,0,0,0,0,0.4464,0.4465,0.4541,0.4542,0.4542,0.4578,0.4578,0.4579,0.4572,0.4571,0.4571,0.457,0.4606,0.4608,0.461,0,0,0,0,0,0,0,0,0,0,0,0,0,0.4499,0.4466,0.4541,0.4543,0.4544,0.4578,0.4578,0.4579,0.4572,0.4571,0.457,0.4569,0.4606,0.4608,0.4611,0.4645,0,0,0.4618,0.4619,0,0,0,0,0,0,0,0,0.4497,0.4501,0.4542,0.4543,0.4544,0.4569,0.4565,0.4601,0.4573,0.4561,0.457,0.4569,0.4595,0.4598,0.4607,0.4646,0.4648,0.4618,0.4619,0.462,0.4621,0,0,0,0,0,0,0,0.4494,0.45,0.4556,0.4543,0.4544,0.4542,0.4545,0.4571,0.4583,0.4562,0.4562,0.4566,0.4595,0.4605,0.4608,0.4649,0.4618,0.462,0.4622,0.4622,0.4715,0.4716,0,0,0,0,0,0,0.4491,0.4498,0.4555,0.4557,0.4517,0.4544,0.4548,0.4562,0.4583,0.4585,0.4567,0.4566,0.4602,0.4605,0.4609,0.465,0.462,0.4623,0.4624,0.4714,0.4716,0.4717,0,0,0,0,0,0,0.449,0.4497,0.4553,0.4527,0.4534,0.4546,0.4562,0.4563,0.4573,0.4587,0.4589,0.4575,0.4601,0.4606,0.4636,0.4651,0.4624,0.4626,0.4713,0.4715,0.4716,0.4731,0,0,0,0,0,0,0.4488,0.4496,0.451,0.4528,0.4536,0.4579,0.4563,0.4565,0.4577,0.4576,0.4595,0.4597,0.4601,0.4632,0.4638,0.4654,0.4628,0.4712,0.4714,0.4716,0.4729,0.4733,0.4736,0,0,0,0,0,0.4485,0.4513,0.451,0.4517,0.4553,0.458,0.4585,0.4589,0.4579,0.4592,0.46,0.4596,0.4648,0.4635,0.4642,0.4658,0.4711,0.4713,0.4716,0.4728,0.4732,0.4736,0,0,0,0,0,0,0.4496,0.4515,0.4513,0.4548,0.4562,0.4579,0.4596,0.4594,0.4612,0.461,0.4614,0.4618,0.4647,0.4656,0.4641,0.4692,0.4678,0.4682,0.4685,0.4689,0.4693,0.469,0.463,0,0,0,0,0,0.4503,0.4524,0.4539,0.4568,0.4575,0.4584,0.4596,0.4598,0.4613,0.462,0.463,0.4645,0.4665,0.4678,0.4697,0.473,0.4734,0.4745,0.4748,0.4751,0.4754,0.4771,0.4776,0.4725,0.4725,0.4724,0,0,0.4517,0.453,0.4543,0.457,0.4582,0.4603,0.459,0.4613,0.4628,0.4623,0.4651,0.466,0.4676,0.4708,0.4722,0.4716,0.4769,0.4754,0.4756,0.4758,0.4774,0.4779,0.4783,0.4726,0.4726,0.4726,0,0,0.4552,0.4565,0.4589,0.4601,0.4619,0.4624,0.463,0.4647,0.4652,0.4681,0.4677,0.4695,0.4729,0.474,0.4751,0.4789,0.4785,0.4795,0.4813,0.4829,0.4833,0.4837,0.4849,0.4854,0.4798,0.4798,0.4798,0,0.4567,0.4599,0.4602,0.4625,0.4637,0.4633,0.4658,0.4669,0.4692,0.47,0.4692,0.4734,0.4745,0.4778,0.4787,0.4796,0.4802,0.4793,0.4833,0.4836,0.484,0.4852,0.4856,0.4799,0.4799,0.4799,0.4799,0,0.4616,0.4637,0.4655,0.4677,0.4691,0.4714,0.4721,0.4734,0.4734,0.474,0.4768,0.4781,0.4802,0.481,0.4811,0.4843,0.4838,0.4832,0.4818,0.4845,0.4857,0.4861,0.48,0.48,0.48,0.48,0,0,0.466,0.4683,0.4689,0.4698,0.4717,0.4733,0.4756,0.4776,0.4787,0.4803,0.4821,0.4849,0.4843,0.4854,0.4856,0.4871,0.4898,0.4862,0.4862,0.4867,0.4933,0.4938,0.4943,0.4896,0.4897,0.4898,0.4932,0,0.4697,0.4737,0.474,0.4777,0.4796,0.4792,0.4811,0.4824,0.483,0.4847,0.4853,0.4873,0.4864,0.487,0.4885,0.4892,0.4911,0.489,0.4912,0.4913,0.4908,0.4949,0.4954,0.4986,0.4936,0.4937,0.4937,0,0.4745,0.4762,0.48,0.4814,0.4822,0.484,0.4858,0.4874,0.4888,0.4891,0.4903,0.4903,0.4925,0.491,0.4941,0.4926,0.4935,0.494,0.4941,0.4943,0.4927,0.4951,0.4996,0.5001,0.4945,0.4944,0.4944,0,0.4773,0.4804,0.4831,0.4839,0.4856,0.4869,0.4876,0.489,0.4901,0.4916,0.4923,0.4941,0.4951,0.4965,0.4968,0.4958,0.4998,0.4984,0.5,0.5,0.5009,0.5008,0.5055,0.5016,0.5016,0.5016,0.5016,0,0.4813,0.4836,0.4843,0.4859,0.4885,0.4887,0.4912,0.4919,0.4931,0.4947,0.4945,0.4961,0.4965,0.4981,0.4984,0.5008,0.5012,0.5015,0.5015,0.5015,0.5014,0.5021,0.5019,0.5017,0.5017,0.5016,0.5016,0,0.4848,0.4854,0.4882,0.4896,0.49,0.4918,0.4929,0.4944,0.495,0.4971,0.4976,0.4984,0.5003,0.5008,0.503,0.5032,0.506,0.5059,0.5055,0.5055,0.507,0.5069,0.5123,0.5129,0.5087,0.5087,0.5087,0,0.4873,0.4891,0.4906,0.4917,0.4925,0.4943,0.4955,0.4958,0.4969,0.4986,0.4999,0.5017,0.5032,0.5062,0.507,0.5086,0.5085,0.5103,0.5088,0.5086,0.5084,0.5083,0.5084,0.5106,0.5106,0.5106,0.5107,0,0.4916,0.4918,0.4935,0.4952,0.4965,0.4979,0.4992,0.5001,0.5006,0.5019,0.5038,0.5049,0.5072,0.509,0.5107,0.5114,0.5111,0.5111,0.5116,0.5115,0.5112,0.5113,0.5062,0.511,0.511,0.511,0.5109,0.5109,0.4947,0.4961,0.4974,0.4992,0.5002,0.5014,0.5029,0.5035,0.5051,0.507,0.507,0.5091,0.5103,0.5125,0.5133,0.5149,0.5143,0.515,0.5152,0.5153,0.5154,0.511,0.5152,0.5152,0.5152,0.5152,0.5152,0,0.4989,0.4997,0.5013,0.5031,0.5045,0.5041,0.5055,0.5066,0.5084,0.5096,0.511,0.5132,0.5149,0.5157,0.5174,0.5184,0.5183,0.5189,0.5188,0.5189,0.5158,0.5152,0.5189,0.5189,0.5189,0.5189,0.5189,0.5189,0.5013,0.5037,0.504,0.5069,0.5076,0.5096,0.5104,0.5115,0.5124,0.5148,0.5162,0.5167,0.5177,0.5194,0.5209,0.5211,0.5217,0.5223,0.5224,0.5195,0.5191,0.5188,0.5182,0.5224,0.5224,0.5253,0.5253,0.5254]},{"header":{"parameterUnit":"m.s-1","parameterCategory":1,"la1":30.2991,"la2":30.254,"lo1":-89.0895,"lo2":-89.0444,"dy":0.0017,"dx":0.0017,"nx":28,"ny":28,"refTime":"2025-06-04T21:00:00:Z","depth":0,"parameterNumber":3,"parameterNumberName":"V-component_of_WINDS"},"data":[0,0,0,0,0,0,0,0,0,0,0,0,0,0,0,0,0,0,0,0,0,0,0,0,0,0,0,0,0,0,0,0,0,0,0,0,0,0,0,0,0,0,0,0,0,0,0,0,0,0,0,0,0,0,0,0,0,0,5.299,5.2991,0,5.3005,5.3005,5.3006,5.2922,5.292,5.2918,5.2915,5.2928,5.293,5.2933,0,0,0,0,0,0,0,0,0,0,0,0,0,5.2887,5.2889,5.299,5.2991,5.2991,5.3005,5.3005,5.3006,5.2923,5.292,5.2917,5.2914,5.2927,5.293,5.2933,0,0,0,0,0,0,0,0,0,0,0,0,0,5.292,5.289,5.299,5.2951,5.2948,5.3005,5.3005,5.3006,5.2923,5.292,5.2916,5.2913,5.2926,5.293,5.2934,5.3028,0,0,5.2945,5.2947,0,0,0,0,0,0,0,0,5.2918,5.2923,5.2957,5.2954,5.295,5.2958,5.2973,5.3013,5.2924,5.2933,5.2915,5.2911,5.2941,5.2943,5.2954,5.3029,5.3029,5.2946,5.2948,5.295,5.2951,0,0,0,0,0,0,0,5.2916,5.2922,5.2996,5.2957,5.2953,5.2932,5.2932,5.298,5.2956,5.2932,5.2926,5.2929,5.2938,5.295,5.2953,5.303,5.2945,5.2949,5.2951,5.2953,5.3181,5.3184,0,0,0,0,0,0,5.2919,5.2921,5.2996,5.2997,5.2925,5.2936,5.2937,5.2959,5.2956,5.2952,5.2932,5.2925,5.2945,5.2949,5.2953,5.3062,5.2949,5.2953,5.2955,5.3177,5.3182,5.3186,0,0,0,0,0,0,5.2917,5.2926,5.2995,5.2957,5.2964,5.2942,5.2967,5.2962,5.2973,5.2956,5.2951,5.2948,5.2943,5.2948,5.301,5.3061,5.2955,5.2958,5.3173,5.3178,5.3184,5.3282,0,0,0,0,0,0,5.2914,5.2926,5.2963,5.2959,5.2967,5.3053,5.2971,5.2964,5.298,5.2971,5.297,5.2966,5.294,5.3005,5.3014,5.3065,5.2961,5.3168,5.3175,5.3182,5.3274,5.329,5.3304,0,0,0,0,0,5.2911,5.299,5.2965,5.2975,5.3012,5.3056,5.306,5.3029,5.2985,5.3021,5.3009,5.2966,5.3055,5.3012,5.3021,5.3074,5.3164,5.3173,5.3181,5.3267,5.3287,5.3304,0,0,0,0,0,0,5.3,5.2989,5.2961,5.3041,5.305,5.3042,5.3086,5.3052,5.3073,5.3063,5.3023,5.3024,5.3092,5.3089,5.3042,5.3164,5.3102,5.3112,5.3163,5.3182,5.3197,5.3195,5.2964,0,0,0,0,0,5.303,5.3067,5.3054,5.3126,5.3132,5.3109,5.3127,5.3102,5.3109,5.3112,5.3105,5.3113,5.3142,5.3162,5.3188,5.3273,5.3271,5.3314,5.333,5.3342,5.3351,5.3394,5.3412,5.3214,5.3213,5.3213,0,0,5.309,5.3088,5.3114,5.3144,5.3148,5.3186,5.3112,5.3156,5.3184,5.3119,5.3176,5.3172,5.3178,5.3251,5.3283,5.3251,5.3406,5.3353,5.3363,5.3365,5.3404,5.3423,5.344,5.3219,5.3218,5.3217,0,0,5.3219,5.3222,5.3281,5.3287,5.3294,5.3278,5.3292,5.3289,5.3283,5.3341,5.3292,5.3324,5.3376,5.3381,5.3391,5.3521,5.3482,5.3531,5.3609,5.3651,5.3667,5.368,5.3725,5.3741,5.354,5.3541,5.3541,0,5.3292,5.3349,5.3316,5.3363,5.3376,5.332,5.3378,5.3385,5.34,5.341,5.3375,5.3438,5.3438,5.3511,5.3542,5.3553,5.3566,5.353,5.3667,5.3681,5.3693,5.3735,5.3752,5.3546,5.3546,5.3545,5.3545,0,5.3438,5.3478,5.3524,5.3541,5.356,5.3612,5.3586,5.3609,5.3583,5.357,5.3628,5.3627,5.365,5.3666,5.3641,5.3735,5.3715,5.3674,5.361,5.3718,5.3756,5.3772,5.3555,5.3553,5.3551,5.3549,0,0,5.3623,5.362,5.3637,5.3643,5.3646,5.3676,5.3725,5.3749,5.3769,5.3781,5.382,5.3865,5.3827,5.3838,5.3813,5.385,5.3951,5.3804,5.3804,5.383,5.4052,5.4081,5.4101,5.3926,5.3929,5.3931,5.4051,0,5.3747,5.3831,5.3802,5.3888,5.3923,5.387,5.3912,5.3918,5.3908,5.3935,5.3923,5.3954,5.3903,5.3909,5.3944,5.3931,5.3995,5.3923,5.396,5.3961,5.3958,5.4121,5.4152,5.4265,5.4066,5.4068,5.407,0,5.3903,5.3921,5.401,5.4006,5.402,5.4059,5.4077,5.4105,5.411,5.4099,5.4112,5.4079,5.4125,5.4063,5.4125,5.4077,5.409,5.4087,5.409,5.4091,5.4021,5.4124,5.4301,5.4317,5.4094,5.4092,5.4091,0,5.4025,5.4073,5.4132,5.4139,5.4136,5.4164,5.4164,5.4166,5.4182,5.4198,5.4207,5.4229,5.4241,5.4258,5.4231,5.4188,5.4296,5.4232,5.4287,5.4288,5.4311,5.4309,5.4491,5.4324,5.4323,5.4323,5.4323,0,5.4166,5.4222,5.4187,5.4223,5.4283,5.4249,5.431,5.4304,5.4306,5.4339,5.4295,5.4326,5.4289,5.4317,5.4297,5.435,5.4356,5.4348,5.4341,5.4351,5.4352,5.4358,5.4348,5.4328,5.4327,5.4326,5.4325,0,5.4313,5.4292,5.4352,5.4344,5.4344,5.4388,5.4381,5.4413,5.44,5.4442,5.445,5.4428,5.4458,5.4434,5.4463,5.4449,5.452,5.4503,5.4518,5.4513,5.4569,5.4563,5.4758,5.4781,5.4602,5.4604,5.4605,0,5.4402,5.4444,5.4441,5.446,5.4463,5.4495,5.451,5.4478,5.4496,5.4505,5.4536,5.4563,5.4582,5.4633,5.4619,5.4641,5.4623,5.469,5.4626,5.4634,5.4622,5.4619,5.4622,5.4703,5.4705,5.4706,5.4708,0,5.4563,5.4551,5.4575,5.4596,5.4616,5.4631,5.4643,5.4661,5.4628,5.465,5.4681,5.4696,5.4726,5.4753,5.477,5.4769,5.4733,5.4728,5.4742,5.4751,5.4757,5.4752,5.4551,5.4724,5.4722,5.4721,5.472,5.4719,5.4682,5.4716,5.4719,5.4748,5.4753,5.4764,5.4794,5.4784,5.4809,5.4831,5.4811,5.4847,5.485,5.487,5.4873,5.49,5.4872,5.4893,5.4897,5.4902,5.4909,5.4755,5.4904,5.4903,5.4903,5.4902,5.4902,0,5.4839,5.4838,5.4865,5.4882,5.4904,5.4869,5.488,5.49,5.4933,5.4939,5.4959,5.4994,5.5019,5.5008,5.5029,5.5053,5.5037,5.506,5.5057,5.5057,5.4934,5.4919,5.5073,5.5073,5.5073,5.5073,5.5072,5.5072,5.4923,5.4977,5.4965,5.5021,5.502,5.5055,5.5064,5.5074,5.5078,5.5119,5.514,5.5133,5.5131,5.5152,5.5174,5.517,5.5179,5.5207,5.5197,5.5082,5.5066,5.5049,5.5035,5.521,5.521,5.5317,5.5318,5.5318]}]]